Location: Bucaritos
(10.0779°N, 67.0369°W)
Time: 10:51:01
(UTC+00:00)

CZ-2C R/B - Pass Details

Date: 27 June 2022
Orbit: 380 x 544 km, 35.0° (Epoch: 17 August)

Event Time Altitude Azimuth Distance (km) Brightness Sun altitude
Rises 23:27:11 0° 332° (NNW) 2,678 5.8 -8.6°
Reaches altitude 10° 23:30:52 10° 5° (N) 1,758 4.2 -9.4°
Maximum altitude 23:32:21 12° 27° (NNE) 1,638 3.7 -9.7°
Drops below altitude 10° 23:33:49 10° 48° (NE) 1,728 3.6 -10.0°
Enters shadow 23:35:38 - 69° (ENE) 2,086 3.9 -10.4°
